Time,TemperatureF,DewpointF,PressureIn,WindDirection,WindDirectionDegrees,WindSpeedMPH,WindSpeedGustMPH,Humidity,HourlyPrecipIn,Conditions,Clouds,dailyrainin,SoftwareType,DateUTC
2013-08-09 00:01:00,86.8,68.7,29.59,SSE,158,15.0,17.2,55,0.00,,,0.00,WUHU216HW,2013-08-09 05:01:00,
2013-08-09 00:06:00,86.8,68.7,29.59,SSE,158,12.8,18.6,55,0.00,,,0.00,WUHU216HW,2013-08-09 05:06:00,
2013-08-09 00:11:00,86.6,68.5,29.59,South,180,11.0,18.6,55,0.00,,,0.00,WUHU216HW,2013-08-09 05:11:00,
2013-08-09 00:16:00,85.3,68.3,29.59,South,180,12.8,18.6,57,0.00,,,0.00,WUHU216HW,2013-08-09 05:16:00,
2013-08-09 00:21:00,85.0,68.6,29.59,South,180,9.2,17.9,58,0.00,,,0.00,WUHU216HW,2013-08-09 05:21:00,
2013-08-09 00:26:00,84.6,68.8,29.60,SSE,158,8.9,17.0,59,0.00,,,0.00,WUHU216HW,2013-08-09 05:26:00,
2013-08-09 00:31:00,84.4,69.1,29.60,SSE,158,9.8,17.0,60,0.00,,,0.00,WUHU216HW,2013-08-09 05:31:00,
2013-08-09 00:36:00,84.1,69.2,29.60,SSE,158,13.6,14.8,61,0.00,,,0.00,WUHU216HW,2013-08-09 05:36:00,
2013-08-09 00:41:00,83.9,69.0,29.60,SSW,203,7.6,14.8,61,0.00,,,0.00,WUHU216HW,2013-08-09 05:41:00,
2013-08-09 00:46:00,84.4,69.6,29.61,SSW,203,4.7,13.6,61,0.00,,,0.00,WUHU216HW,2013-08-09 05:46:00,
2013-08-09 00:51:00,84.6,69.8,29.61,SSW,203,7.6,9.8,61,0.00,,,0.00,WUHU216HW,2013-08-09 05:51:00,
2013-08-09 00:56:00,84.8,69.8,29.61,SE,135,3.6,9.8,61,0.00,,,0.00,WUHU216HW,2013-08-09 05:56:00,
2013-08-09 01:01:00,84.4,69.6,29.62,ESE,113,1.6,7.8,61,0.00,,,0.00,WUHU216HW,2013-08-09 06:01:00,
2013-08-09 01:06:00,84.2,69.4,29.62,NNW,338,2.5,6.9,61,0.00,,,0.00,WUHU216HW,2013-08-09 06:06:00,
2013-08-09 01:11:00,83.9,69.9,29.62,WNW,293,1.1,5.8,63,0.00,,,0.00,WUHU216HW,2013-08-09 06:11:00,
2013-08-09 01:16:00,83.7,70.2,29.62,NNE,23,2.5,5.8,64,0.00,,,0.00,WUHU216HW,2013-08-09 06:16:00,
2013-08-09 01:21:00,83.5,69.6,29.62,NE,45,2.0,2.5,63,0.00,,,0.00,WUHU216HW,2013-08-09 06:21:00,
2013-08-09 01:26:00,83.3,70.3,29.62,NNE,23,0.7,2.5,65,0.00,,,0.00,WUHU216HW,2013-08-09 06:26:00,
2013-08-09 01:31:00,83.2,70.6,29.62,ESE,113,0.9,5.4,66,0.00,,,0.00,WUHU216HW,2013-08-09 06:31:00,
2013-08-09 01:36:00,83.5,70.9,29.62,SSE,158,0.9,5.4,66,0.00,,,0.00,WUHU216HW,2013-08-09 06:36:00,
2013-08-09 01:41:00,83.7,70.7,29.62,West,270,0.9,3.6,65,0.00,,,0.00,WUHU216HW,2013-08-09 06:41:00,
2013-08-09 01:46:00,83.5,71.4,29.62,SSE,158,3.4,4.7,67,0.00,,,0.00,WUHU216HW,2013-08-09 06:46:00,
2013-08-09 01:51:00,82.8,71.1,29.62,SSW,203,1.1,4.7,68,0.00,,,0.00,WUHU216HW,2013-08-09 06:51:00,
2013-08-09 01:56:00,82.3,71.5,29.62,South,180,0.7,5.8,70,0.00,,,0.00,WUHU216HW,2013-08-09 06:56:00,
2013-08-09 02:01:00,82.1,70.8,29.62,South,180,3.1,5.8,69,0.00,,,0.00,WUHU216HW,2013-08-09 07:01:00,
2013-08-09 02:06:00,81.9,70.8,29.63,SW,225,1.8,4.3,69,0.00,,,0.00,WUHU216HW,2013-08-09 07:06:00,
2013-08-09 02:11:00,81.9,71.2,29.63,SSW,203,5.8,5.8,70,0.00,,,0.00,WUHU216HW,2013-08-09 07:11:00,
2013-08-09 02:16:00,81.9,71.6,29.63,SSE,158,4.5,5.8,71,0.00,,,0.00,WUHU216HW,2013-08-09 07:16:00,
2013-08-09 02:21:00,81.5,71.3,29.63,SSW,203,3.8,5.8,71,0.00,,,0.00,WUHU216HW,2013-08-09 07:21:00,
2013-08-09 02:26:00,81.2,70.9,29.63,South,180,4.9,6.9,71,0.00,,,0.00,WUHU216HW,2013-08-09 07:26:00,
2013-08-09 02:31:00,80.8,71.0,29.62,SSW,203,4.7,8.9,72,0.00,,,0.00,WUHU216HW,2013-08-09 07:31:00,
2013-08-09 02:36:00,81.0,71.1,29.63,SSW,203,4.0,8.9,72,0.00,,,0.00,WUHU216HW,2013-08-09 07:36:00,
2013-08-09 02:41:00,81.0,70.7,29.63,SW,225,2.2,6.3,71,0.00,,,0.00,WUHU216HW,2013-08-09 07:41:00,
2013-08-09 02:46:00,81.0,70.7,29.63,SSW,203,4.0,6.5,71,0.00,,,0.00,WUHU216HW,2013-08-09 07:46:00,
2013-08-09 02:51:00,81.0,70.7,29.63,SSW,203,2.2,6.5,71,0.00,,,0.00,WUHU216HW,2013-08-09 07:51:00,
2013-08-09 02:56:00,81.0,70.7,29.63,South,180,3.4,4.7,71,0.00,,,0.00,WUHU216HW,2013-08-09 07:56:00,
2013-08-09 03:01:00,81.0,71.6,29.63,South,180,2.9,4.7,73,0.00,,,0.00,WUHU216HW,2013-08-09 08:01:00,
2013-08-09 03:06:00,81.0,71.9,29.64,SW,225,4.9,4.9,74,0.00,,,0.00,WUHU216HW,2013-08-09 08:06:00,
2013-08-09 03:11:00,80.3,71.6,29.63,SSW,203,3.6,6.3,75,0.00,,,0.00,WUHU216HW,2013-08-09 08:11:00,
2013-08-09 03:16:00,79.9,71.3,29.63,South,180,6.0,7.6,75,0.00,,,0.00,WUHU216HW,2013-08-09 08:16:00,
2013-08-09 03:21:00,79.9,71.3,29.63,SSW,203,4.9,7.6,75,0.00,,,0.00,WUHU216HW,2013-08-09 08:21:00,
2013-08-09 03:26:00,79.9,71.3,29.63,SW,225,4.7,7.8,75,0.00,,,0.00,WUHU216HW,2013-08-09 08:26:00,
2013-08-09 03:31:00,79.7,71.5,29.63,South,180,4.3,7.8,76,0.00,,,0.00,WUHU216HW,2013-08-09 08:31:00,
2013-08-09 03:36:00,79.6,71.3,29.63,SSW,203,4.9,6.5,76,0.00,,,0.00,WUHU216HW,2013-08-09 08:36:00,
2013-08-09 03:41:00,79.4,71.6,29.63,SSW,203,5.4,6.5,77,0.00,,,0.00,WUHU216HW,2013-08-09 08:41:00,
2013-08-09 03:46:00,79.2,71.7,29.63,South,180,7.8,7.8,78,0.00,,,0.00,WUHU216HW,2013-08-09 08:46:00,
2013-08-09 03:51:00,79.0,71.6,29.63,South,180,3.6,7.8,78,0.00,,,0.00,WUHU216HW,2013-08-09 08:51:00,
2013-08-09 03:56:00,78.8,71.8,29.63,SSW,203,3.4,7.4,79,0.00,,,0.00,WUHU216HW,2013-08-09 08:56:00,
2013-08-09 04:01:00,78.7,71.2,29.63,SSW,203,3.6,7.4,78,0.00,,,0.00,WUHU216HW,2013-08-09 09:01:00,
2013-08-09 04:06:00,78.8,71.4,29.63,South,180,1.8,4.7,78,0.00,,,0.00,WUHU216HW,2013-08-09 09:06:00,
2013-08-09 04:11:00,78.8,71.4,29.63,SSW,203,1.3,4.0,78,0.00,,,0.00,WUHU216HW,2013-08-09 09:11:00,
2013-08-09 04:16:00,78.5,71.0,29.63,SSW,203,1.3,2.9,78,0.00,,,0.00,WUHU216HW,2013-08-09 09:16:00,
2013-08-09 04:21:00,78.1,71.5,29.64,SSE,158,2.2,2.5,80,0.00,,,0.00,WUHU216HW,2013-08-09 09:21:00,
2013-08-09 04:26:00,77.8,71.5,29.63,SE,135,1.8,3.6,81,0.00,,,0.00,WUHU216HW,2013-08-09 09:26:00,
2013-08-09 04:31:00,77.4,71.1,29.63,SSE,158,2.5,3.6,81,0.00,,,0.00,WUHU216HW,2013-08-09 09:31:00,
2013-08-09 04:36:00,77.2,71.3,29.64,SE,135,2.0,4.5,82,0.00,,,0.00,WUHU216HW,2013-08-09 09:36:00,
2013-08-09 04:41:00,77.8,71.5,29.63,SSE,158,3.1,4.7,81,0.00,,,0.00,WUHU216HW,2013-08-09 09:41:00,
2013-08-09 04:46:00,77.6,71.3,29.63,SSE,158,3.4,4.7,81,0.00,,,0.00,WUHU216HW,2013-08-09 09:46:00,
2013-08-09 04:51:00,77.0,71.1,29.63,SSW,203,3.4,3.6,82,0.00,,,0.00,WUHU216HW,2013-08-09 09:51:00,
2013-08-09 04:56:00,76.7,71.1,29.63,SSE,158,3.4,4.7,83,0.00,,,0.00,WUHU216HW,2013-08-09 09:56:00,
2013-08-09 05:01:00,76.1,71.0,29.63,South,180,4.7,5.6,84,0.00,,,0.00,WUHU216HW,2013-08-09 10:01:00,
2013-08-09 05:06:00,76.0,71.2,29.63,SSE,158,2.7,5.6,85,0.00,,,0.00,WUHU216HW,2013-08-09 10:06:00,
2013-08-09 05:11:00,76.0,71.2,29.63,SSE,158,2.9,4.7,85,0.00,,,0.00,WUHU216HW,2013-08-09 10:11:00,
2013-08-09 05:16:00,76.0,71.2,29.63,SE,135,2.5,4.3,85,0.00,,,0.00,WUHU216HW,2013-08-09 10:16:00,
2013-08-09 05:21:00,75.8,71.0,29.63,SE,135,3.1,4.0,85,0.00,,,0.00,WUHU216HW,2013-08-09 10:21:00,
2013-08-09 05:26:00,76.0,71.2,29.64,SSE,158,3.4,4.0,85,0.00,,,0.00,WUHU216HW,2013-08-09 10:26:00,
2013-08-09 05:31:00,76.1,71.3,29.64,SSE,158,4.0,4.0,85,0.00,,,0.00,WUHU216HW,2013-08-09 10:31:00,
2013-08-09 05:36:00,76.0,71.2,29.63,SSE,158,3.8,4.5,85,0.00,,,0.00,WUHU216HW,2013-08-09 10:36:00,
2013-08-09 05:41:00,75.4,71.0,29.63,SSE,158,4.7,6.0,86,0.00,,,0.00,WUHU216HW,2013-08-09 10:41:00,
2013-08-09 05:46:00,75.2,70.8,29.63,South,180,4.5,6.0,86,0.00,,,0.00,WUHU216HW,2013-08-09 10:46:00,
2013-08-09 05:51:00,75.1,71.0,29.63,SSE,158,4.7,6.3,87,0.00,,,0.00,WUHU216HW,2013-08-09 10:51:00,
2013-08-09 05:56:00,74.9,70.8,29.63,South,180,3.4,6.3,87,0.00,,,0.00,WUHU216HW,2013-08-09 10:56:00,
2013-08-09 06:01:00,74.9,70.8,29.63,South,180,4.0,5.1,87,0.00,,,0.00,WUHU216HW,2013-08-09 11:01:00,
2013-08-09 06:06:00,74.9,70.8,29.63,SSE,158,3.8,4.7,87,0.00,,,0.00,WUHU216HW,2013-08-09 11:06:00,
2013-08-09 06:11:00,74.9,70.8,29.64,South,180,3.6,5.4,87,0.00,,,0.00,WUHU216HW,2013-08-09 11:11:00,
2013-08-09 06:16:00,75.2,70.8,29.64,South,180,3.1,5.4,86,0.00,,,0.00,WUHU216HW,2013-08-09 11:16:00,
2013-08-09 06:21:00,75.8,71.0,29.64,South,180,2.9,4.7,85,0.00,,,0.00,WUHU216HW,2013-08-09 11:21:00,
2013-08-09 06:26:00,75.2,70.8,29.64,South,180,2.2,4.3,86,0.00,,,0.00,WUHU216HW,2013-08-09 11:26:00,
2013-08-09 06:31:00,75.1,71.0,29.64,SSE,158,3.4,3.8,87,0.00,,,0.00,WUHU216HW,2013-08-09 11:31:00,
2013-08-09 06:36:00,74.9,70.8,29.64,South,180,3.8,3.8,87,0.00,,,0.00,WUHU216HW,2013-08-09 11:36:00,
2013-08-09 06:41:00,74.7,70.9,29.64,South,180,4.5,4.5,88,0.00,,,0.00,WUHU216HW,2013-08-09 11:41:00,
2013-08-09 06:46:00,74.5,70.7,29.64,South,180,4.0,4.7,88,0.00,,,0.00,WUHU216HW,2013-08-09 11:46:00,
2013-08-09 06:51:00,74.5,70.7,29.64,South,180,2.7,4.7,88,0.00,,,0.00,WUHU216HW,2013-08-09 11:51:00,
2013-08-09 06:56:00,74.5,70.7,29.65,SE,135,2.0,4.0,88,0.00,,,0.00,WUHU216HW,2013-08-09 11:56:00,
2013-08-09 07:01:00,74.7,70.9,29.65,SE,135,3.1,3.1,88,0.00,,,0.00,WUHU216HW,2013-08-09 12:01:00,
2013-08-09 07:06:00,75.4,71.4,29.65,SE,135,2.5,3.1,87,0.00,,,0.00,WUHU216HW,2013-08-09 12:06:00,
2013-08-09 07:11:00,75.6,71.2,29.65,SE,135,3.1,3.6,86,0.00,,,0.00,WUHU216HW,2013-08-09 12:11:00,
2013-08-09 07:16:00,74.9,70.8,29.65,SSE,158,3.6,4.0,87,0.00,,,0.00,WUHU216HW,2013-08-09 12:16:00,
2013-08-09 07:21:00,74.5,70.7,29.65,SSE,158,2.5,4.0,88,0.00,,,0.00,WUHU216HW,2013-08-09 12:21:00,
2013-08-09 07:26:00,74.2,70.7,29.66,SE,135,3.6,3.8,89,0.00,,,0.00,WUHU216HW,2013-08-09 12:26:00,
2013-08-09 07:31:00,74.2,70.7,29.66,SE,135,4.0,4.0,89,0.00,,,0.00,WUHU216HW,2013-08-09 12:31:00,
2013-08-09 07:36:00,74.2,70.7,29.66,SE,135,2.7,4.0,89,0.00,,,0.00,WUHU216HW,2013-08-09 12:36:00,
2013-08-09 07:41:00,74.3,70.9,29.66,SSE,158,2.5,4.0,89,0.00,,,0.00,WUHU216HW,2013-08-09 12:41:00,
2013-08-09 07:46:00,74.3,70.9,29.66,SE,135,2.2,3.6,89,0.00,,,0.00,WUHU216HW,2013-08-09 12:46:00,
2013-08-09 07:51:00,74.5,71.1,29.66,SE,135,1.8,3.6,89,0.00,,,0.00,WUHU216HW,2013-08-09 12:51:00,
2013-08-09 07:56:00,75.4,71.6,29.67,SE,135,3.1,3.8,88,0.00,,,0.00,WUHU216HW,2013-08-09 12:56:00,
2013-08-09 08:01:00,76.3,71.8,29.67,SE,135,1.6,3.8,86,0.00,,,0.00,WUHU216HW,2013-08-09 13:01:00,
2013-08-09 08:06:00,76.7,71.8,29.66,SSE,158,2.2,3.4,85,0.00,,,0.00,WUHU216HW,2013-08-09 13:06:00,
2013-08-09 08:11:00,76.3,71.8,29.66,SSE,158,2.7,4.0,86,0.00,,,0.00,WUHU216HW,2013-08-09 13:11:00,
2013-08-09 08:16:00,76.5,72.0,29.66,SSE,158,1.1,4.0,86,0.00,,,0.00,WUHU216HW,2013-08-09 13:16:00,
2013-08-09 08:21:00,76.9,72.0,29.67,South,180,4.3,4.3,85,0.00,,,0.00,WUHU216HW,2013-08-09 13:21:00,
2013-08-09 08:26:00,77.4,72.2,29.67,South,180,1.8,4.7,84,0.00,,,0.00,WUHU216HW,2013-08-09 13:26:00,
2013-08-09 08:31:00,78.1,72.5,29.67,SSW,203,3.6,4.7,83,0.00,,,0.00,WUHU216HW,2013-08-09 13:31:00,
2013-08-09 08:36:00,79.0,72.7,29.67,SW,225,4.7,6.5,81,0.00,,,0.00,WUHU216HW,2013-08-09 13:36:00,
2013-08-09 08:41:00,79.7,73.1,29.67,SSW,203,5.1,6.7,80,0.00,,,0.00,WUHU216HW,2013-08-09 13:41:00,
2013-08-09 08:46:00,80.1,72.6,29.67,SW,225,4.3,6.7,78,0.00,,,0.00,WUHU216HW,2013-08-09 13:46:00,
2013-08-09 08:51:00,80.3,72.8,29.68,SSW,203,6.0,6.9,78,0.00,,,0.00,WUHU216HW,2013-08-09 13:51:00,
2013-08-09 08:56:00,80.6,72.8,29.67,SSW,203,2.2,6.9,77,0.00,,,0.00,WUHU216HW,2013-08-09 13:56:00,
2013-08-09 09:01:00,81.2,72.9,29.68,SW,225,4.7,6.9,76,0.00,,,0.00,WUHU216HW,2013-08-09 14:01:00,
2013-08-09 09:06:00,81.7,73.0,29.68,WSW,248,4.9,7.2,75,0.00,,,0.00,WUHU216HW,2013-08-09 14:06:00,
2013-08-09 09:11:00,82.1,73.0,29.68,SSW,203,4.7,7.2,74,0.00,,,0.00,WUHU216HW,2013-08-09 14:11:00,
2013-08-09 09:16:00,82.4,73.3,29.68,SSW,203,3.6,7.2,74,0.00,,,0.00,WUHU216HW,2013-08-09 14:16:00,
2013-08-09 09:21:00,83.2,73.6,29.68,South,180,4.7,5.4,73,0.00,,,0.00,WUHU216HW,2013-08-09 14:21:00,
2013-08-09 09:26:00,83.7,73.7,29.68,WSW,248,5.8,5.8,72,0.00,,,0.00,WUHU216HW,2013-08-09 14:26:00,
2013-08-09 09:31:00,83.9,73.1,29.68,WSW,248,6.9,6.9,70,0.00,,,0.00,WUHU216HW,2013-08-09 14:31:00,
2013-08-09 09:36:00,84.1,72.8,29.69,West,270,1.8,8.1,69,0.00,,,0.00,WUHU216HW,2013-08-09 14:36:00,
2013-08-09 09:41:00,84.2,73.0,29.69,WNW,293,4.0,8.1,69,0.00,,,0.00,WUHU216HW,2013-08-09 14:41:00,
2013-08-09 09:46:00,85.0,72.8,29.69,SSE,158,2.5,6.7,67,0.00,,,0.00,WUHU216HW,2013-08-09 14:46:00,
2013-08-09 09:51:00,85.0,72.8,29.69,SW,225,3.4,6.7,67,0.00,,,0.00,WUHU216HW,2013-08-09 14:51:00,
2013-08-09 09:56:00,85.3,73.2,29.69,WSW,248,1.3,5.4,67,0.00,,,0.00,WUHU216HW,2013-08-09 14:56:00,
2013-08-09 10:01:00,85.5,72.8,29.69,South,180,4.7,5.4,66,0.00,,,0.00,WUHU216HW,2013-08-09 15:01:00,
2013-08-09 10:06:00,85.7,72.5,29.70,SSE,158,2.5,5.4,65,0.00,,,0.00,WUHU216HW,2013-08-09 15:06:00,
2013-08-09 10:11:00,86.2,72.6,29.70,South,180,4.0,7.8,64,0.00,,,0.00,WUHU216HW,2013-08-09 15:11:00,
2013-08-09 10:16:00,86.8,72.6,29.69,South,180,2.7,7.8,63,0.00,,,0.00,WUHU216HW,2013-08-09 15:16:00,
2013-08-09 10:21:00,87.5,72.5,29.69,WSW,248,4.3,5.6,61,0.00,,,0.00,WUHU216HW,2013-08-09 15:21:00,
2013-08-09 10:26:00,87.8,71.8,29.69,South,180,4.0,8.1,59,0.00,,,0.00,WUHU216HW,2013-08-09 15:26:00,
2013-08-09 10:31:00,87.8,72.4,29.69,SSW,203,2.7,8.1,60,0.00,,,0.00,WUHU216HW,2013-08-09 15:31:00,
2013-08-09 10:36:00,88.4,71.2,29.70,South,180,6.0,6.3,57,0.00,,,0.00,WUHU216HW,2013-08-09 15:36:00,
2013-08-09 10:41:00,88.6,69.8,29.70,SW,225,3.4,6.7,54,0.00,,,0.00,WUHU216HW,2013-08-09 15:41:00,
2013-08-09 10:46:00,89.1,70.3,29.69,SSW,203,5.8,6.7,54,0.00,,,0.00,WUHU216HW,2013-08-09 15:46:00,
2013-08-09 10:51:00,89.6,70.2,29.69,South,180,3.4,6.9,53,0.00,,,0.00,WUHU216HW,2013-08-09 15:51:00,
2013-08-09 10:56:00,89.3,70.4,29.69,SW,225,4.0,6.9,54,0.00,,,0.00,WUHU216HW,2013-08-09 15:56:00,
2013-08-09 11:01:00,88.9,69.6,29.69,SSW,203,6.7,7.6,53,0.00,,,0.00,WUHU216HW,2013-08-09 16:01:00,
2013-08-09 11:06:00,89.6,70.2,29.69,South,180,1.1,7.6,53,0.00,,,0.00,WUHU216HW,2013-08-09 16:06:00,
2013-08-09 11:11:00,90.2,69.0,29.69,SSE,158,6.3,7.4,50,0.00,,,0.00,WUHU216HW,2013-08-09 16:11:00,
2013-08-09 11:16:00,90.4,69.8,29.69,SSW,203,1.1,8.3,51,0.00,,,0.00,WUHU216HW,2013-08-09 16:16:00,
2013-08-09 11:21:00,91.1,70.4,29.69,WSW,248,3.4,8.3,51,0.00,,,0.00,WUHU216HW,2013-08-09 16:21:00,
2013-08-09 11:26:00,91.4,69.0,29.69,SSW,203,8.9,8.9,48,0.00,,,0.00,WUHU216HW,2013-08-09 16:26:00,
2013-08-09 11:31:00,91.8,68.6,29.69,SW,225,3.1,8.9,47,0.00,,,0.00,WUHU216HW,2013-08-09 16:31:00,
2013-08-09 11:36:00,91.8,69.2,29.69,South,180,3.8,8.9,48,0.00,,,0.00,WUHU216HW,2013-08-09 16:36:00,
2013-08-09 11:41:00,92.5,69.2,29.69,WNW,293,6.9,6.9,47,0.00,,,0.00,WUHU216HW,2013-08-09 16:41:00,
2013-08-09 11:46:00,93.2,68.6,29.69,SW,225,5.4,6.9,45,0.00,,,0.00,WUHU216HW,2013-08-09 16:46:00,
2013-08-09 11:51:00,93.2,68.6,29.69,SW,225,2.5,6.9,45,0.00,,,0.00,WUHU216HW,2013-08-09 16:51:00,
2013-08-09 11:56:00,93.8,66.5,29.68,SE,135,6.5,7.8,41,0.00,,,0.00,WUHU216HW,2013-08-09 16:56:00,
2013-08-09 12:01:00,92.9,66.3,29.68,SSE,158,3.4,7.8,42,0.00,,,0.00,WUHU216HW,2013-08-09 17:01:00,
2013-08-09 12:06:00,93.4,66.8,29.68,SSE,158,1.8,7.6,42,0.00,,,0.00,WUHU216HW,2013-08-09 17:06:00,
2013-08-09 12:11:00,93.6,66.3,29.69,South,180,4.0,8.7,41,0.00,,,0.00,WUHU216HW,2013-08-09 17:11:00,
2013-08-09 12:16:00,94.1,66.2,29.68,South,180,6.3,8.7,40,0.00,,,0.00,WUHU216HW,2013-08-09 17:16:00,
2013-08-09 12:21:00,94.1,66.2,29.68,SSW,203,6.3,8.3,40,0.00,,,0.00,WUHU216HW,2013-08-09 17:21:00,
2013-08-09 12:26:00,94.3,67.0,29.68,WSW,248,4.9,8.3,41,0.00,,,0.00,WUHU216HW,2013-08-09 17:26:00,
2013-08-09 12:31:00,94.9,66.8,29.68,SW,225,6.3,8.1,40,0.00,,,0.00,WUHU216HW,2013-08-09 17:31:00,
2013-08-09 12:36:00,95.8,66.0,29.67,SE,135,5.4,7.6,38,0.00,,,0.00,WUHU216HW,2013-08-09 17:36:00,
2013-08-09 12:41:00,96.3,65.6,29.67,SW,225,4.7,8.5,37,0.00,,,0.00,WUHU216HW,2013-08-09 17:41:00,
2013-08-09 12:46:00,96.8,67.0,29.67,SW,225,5.1,8.5,38,0.00,,,0.00,WUHU216HW,2013-08-09 17:46:00,
2013-08-09 12:51:00,97.4,67.4,29.67,SSE,158,6.0,8.5,38,0.00,,,0.00,WUHU216HW,2013-08-09 17:51:00,
2013-08-09 12:56:00,97.6,65.1,29.67,SSE,158,6.9,9.8,35,0.00,,,0.00,WUHU216HW,2013-08-09 17:56:00,
2013-08-09 13:01:00,96.7,65.1,29.66,WSW,248,4.0,9.8,36,0.00,,,0.00,WUHU216HW,2013-08-09 18:01:00,
2013-08-09 13:06:00,96.8,64.4,29.66,SW,225,2.0,7.8,35,0.00,,,0.00,WUHU216HW,2013-08-09 18:06:00,
2013-08-09 13:11:00,97.2,64.8,29.66,SW,225,3.1,7.6,35,0.00,,,0.00,WUHU216HW,2013-08-09 18:11:00,
2013-08-09 13:16:00,96.8,62.8,29.66,SW,225,2.0,10.1,33,0.00,,,0.00,WUHU216HW,2013-08-09 18:16:00,
2013-08-09 13:21:00,97.2,63.9,29.66,SSE,158,9.8,10.1,34,0.00,,,0.00,WUHU216HW,2013-08-09 18:21:00,
2013-08-09 13:26:00,97.9,62.9,29.66,SSE,158,6.3,9.8,32,0.00,,,0.00,WUHU216HW,2013-08-09 18:26:00,
2013-08-09 13:31:00,98.3,64.1,29.66,SE,135,1.8,8.5,33,0.00,,,0.00,WUHU216HW,2013-08-09 18:31:00,
2013-08-09 13:36:00,99.0,63.1,29.66,SSW,203,3.6,8.5,31,0.00,,,0.00,WUHU216HW,2013-08-09 18:36:00,
2013-08-09 13:41:00,99.4,64.3,29.66,ESE,113,2.5,8.5,32,0.00,,,0.00,WUHU216HW,2013-08-09 18:41:00,
2013-08-09 13:46:00,99.4,63.4,29.66,SSW,203,4.7,7.2,31,0.00,,,0.00,WUHU216HW,2013-08-09 18:46:00,
2013-08-09 13:52:00,99.9,63.1,29.65,South,180,7.8,9.8,30,0.00,,,0.00,WUHU216HW,2013-08-09 18:52:00,
2013-08-09 13:56:00,99.9,61.9,29.65,SE,135,7.8,11.6,29,0.00,,,0.00,WUHU216HW,2013-08-09 18:56:00,
2013-08-09 14:01:00,98.5,62.6,29.65,SE,135,5.6,11.6,31,0.00,,,0.00,WUHU216HW,2013-08-09 19:01:00,
2013-08-09 14:06:00,97.7,61.9,29.65,South,180,7.8,8.1,31,0.00,,,0.00,WUHU216HW,2013-08-09 19:06:00,
2013-08-09 14:11:00,97.9,62.1,29.65,SSE,158,9.6,9.6,31,0.00,,,0.00,WUHU216HW,2013-08-09 19:11:00,
2013-08-09 14:16:00,97.9,62.1,29.65,SSE,158,8.3,9.6,31,0.00,,,0.00,WUHU216HW,2013-08-09 19:16:00,
2013-08-09 14:21:00,98.3,61.6,29.65,ESE,113,3.1,9.8,30,0.00,,,0.00,WUHU216HW,2013-08-09 19:21:00,
2013-08-09 14:26:00,98.3,62.5,29.65,SSW,203,7.6,9.8,31,0.00,,,0.00,WUHU216HW,2013-08-09 19:26:00,
2013-08-09 14:31:00,100.1,62.1,29.65,SSE,158,2.9,8.1,29,0.00,,,0.00,WUHU216HW,2013-08-09 19:31:00,
2013-08-09 14:36:00,100.4,63.5,29.65,North,0,0.9,8.1,30,0.00,,,0.00,WUHU216HW,2013-08-09 19:36:00,
2013-08-09 14:41:00,100.6,62.6,29.64,SSW,203,10.7,10.7,29,0.00,,,0.00,WUHU216HW,2013-08-09 19:41:00,
2013-08-09 14:46:00,100.8,61.6,29.65,SW,225,4.9,10.7,28,0.00,,,0.00,WUHU216HW,2013-08-09 19:46:00,
2013-08-09 14:51:00,101.0,60.6,29.64,SSW,203,2.9,10.7,27,0.00,,,0.00,WUHU216HW,2013-08-09 19:51:00,
2013-08-09 14:56:00,100.8,59.3,29.64,SSW,203,1.1,8.3,26,0.00,,,0.00,WUHU216HW,2013-08-09 19:56:00,
2013-08-09 15:01:00,100.4,59.1,29.64,South,180,3.1,7.6,26,0.00,,,0.00,WUHU216HW,2013-08-09 20:01:00,
2013-08-09 15:06:00,100.4,59.1,29.64,NE,45,0.7,7.8,26,0.00,,,0.00,WUHU216HW,2013-08-09 20:06:00,
2013-08-09 15:11:00,99.7,55.0,29.64,South,180,7.8,9.4,23,0.00,,,0.00,WUHU216HW,2013-08-09 20:11:00,
2013-08-09 15:16:00,100.4,57.9,29.63,SSE,158,5.4,9.6,25,0.00,,,0.00,WUHU216HW,2013-08-09 20:16:00,
2013-08-09 15:21:00,100.4,57.9,29.63,SSW,203,2.7,9.6,25,0.00,,,0.00,WUHU216HW,2013-08-09 20:21:00,
2013-08-09 15:26:00,101.2,56.2,29.63,SW,225,1.8,8.3,23,0.00,,,0.00,WUHU216HW,2013-08-09 20:26:00,
2013-08-09 15:31:00,101.5,59.9,29.63,SSE,158,8.9,9.6,26,0.00,,,0.00,WUHU216HW,2013-08-09 20:31:00,
2013-08-09 15:36:00,101.9,60.1,29.63,SE,135,2.7,11.4,26,0.00,,,0.00,WUHU216HW,2013-08-09 20:36:00,
2013-08-09 15:41:00,101.9,60.1,29.63,WSW,248,4.0,11.4,26,0.00,,,0.00,WUHU216HW,2013-08-09 20:41:00,
2013-08-09 15:46:00,102.2,60.5,29.63,NW,315,3.4,7.6,26,0.00,,,0.00,WUHU216HW,2013-08-09 20:46:00,
2013-08-09 15:51:00,102.6,58.5,29.62,SW,225,6.5,7.6,24,0.00,,,0.00,WUHU216HW,2013-08-09 20:51:00,
2013-08-09 15:56:00,102.6,59.6,29.62,South,180,6.3,8.5,25,0.00,,,0.00,WUHU216HW,2013-08-09 20:56:00,
2013-08-09 16:01:00,101.7,60.0,29.62,NW,315,2.2,8.5,26,0.00,,,0.00,WUHU216HW,2013-08-09 21:01:00,
2013-08-09 16:06:00,101.0,59.4,29.62,WSW,248,4.5,6.3,26,0.00,,,0.00,WUHU216HW,2013-08-09 21:06:00,
2013-08-09 16:11:00,101.2,59.6,29.62,SE,135,2.5,4.5,26,0.00,,,0.00,WUHU216HW,2013-08-09 21:11:00,
2013-08-09 16:16:00,100.8,58.1,29.61,SSE,158,2.9,9.2,25,0.00,,,0.00,WUHU216HW,2013-08-09 21:16:00,
2013-08-09 16:21:00,101.2,57.3,29.61,NE,45,1.3,9.2,24,0.00,,,0.00,WUHU216HW,2013-08-09 21:21:00,
2013-08-09 16:26:00,101.5,58.8,29.61,ENE,68,3.1,6.3,25,0.00,,,0.00,WUHU216HW,2013-08-09 21:26:00,
2013-08-09 16:31:00,101.3,58.6,29.61,West,270,1.1,5.4,25,0.00,,,0.00,WUHU216HW,2013-08-09 21:31:00,
2013-08-09 16:36:00,102.1,59.1,29.61,South,180,4.7,5.1,25,0.00,,,0.00,WUHU216HW,2013-08-09 21:36:00,
2013-08-09 16:41:00,102.4,59.5,29.61,SSE,158,0.4,6.3,25,0.00,,,0.00,WUHU216HW,2013-08-09 21:41:00,
2013-08-09 16:46:00,102.6,58.5,29.60,SSW,203,4.0,6.3,24,0.00,,,0.00,WUHU216HW,2013-08-09 21:46:00,
2013-08-09 16:51:00,102.1,56.9,29.61,SSE,158,7.6,7.6,23,0.00,,,0.00,WUHU216HW,2013-08-09 21:51:00,
2013-08-09 16:56:00,100.8,58.1,29.60,SE,135,4.9,7.6,25,0.00,,,0.00,WUHU216HW,2013-08-09 21:56:00,
2013-08-09 17:01:00,100.3,56.6,29.60,South,180,2.5,9.8,24,0.00,,,0.00,WUHU216HW,2013-08-09 22:01:00,
2013-08-09 17:06:00,100.3,56.6,29.60,ENE,68,1.8,9.8,24,0.00,,,0.00,WUHU216HW,2013-08-09 22:06:00,
2013-08-09 17:11:00,100.8,57.1,29.60,NE,45,2.5,4.3,24,0.00,,,0.00,WUHU216HW,2013-08-09 22:11:00,
2013-08-09 17:16:00,101.0,57.2,29.60,SW,225,2.5,5.4,24,0.00,,,0.00,WUHU216HW,2013-08-09 22:16:00,
2013-08-09 17:21:00,101.5,57.6,29.60,ESE,113,4.9,6.7,24,0.00,,,0.00,WUHU216HW,2013-08-09 22:21:00,
2013-08-09 17:26:00,102.1,58.1,29.60,South,180,4.7,6.7,24,0.00,,,0.00,WUHU216HW,2013-08-09 22:26:00,
2013-08-09 17:31:00,102.2,58.1,29.60,SE,135,2.5,6.9,24,0.00,,,0.00,WUHU216HW,2013-08-09 22:31:00,
2013-08-09 17:36:00,101.9,56.8,29.60,SSW,203,3.4,6.9,23,0.00,,,0.00,WUHU216HW,2013-08-09 22:36:00,
2013-08-09 17:41:00,102.1,56.9,29.60,NNE,23,5.4,6.3,23,0.00,,,0.00,WUHU216HW,2013-08-09 22:41:00,
2013-08-09 17:46:00,101.7,57.8,29.60,SSE,158,5.4,6.5,24,0.00,,,0.00,WUHU216HW,2013-08-09 22:46:00,
2013-08-09 17:51:00,101.2,57.3,29.60,North,0,3.4,7.6,24,0.00,,,0.00,WUHU216HW,2013-08-09 22:51:00,
2013-08-09 17:56:00,100.4,57.9,29.59,SE,135,6.0,7.8,25,0.00,,,0.00,WUHU216HW,2013-08-09 22:56:00,
2013-08-09 18:01:00,100.1,56.4,29.59,SE,135,6.7,9.8,24,0.00,,,0.00,WUHU216HW,2013-08-09 23:01:00,
2013-08-09 18:06:00,99.9,57.4,29.59,SSE,158,3.1,9.8,25,0.00,,,0.00,WUHU216HW,2013-08-09 23:06:00,
2013-08-09 18:11:00,100.3,57.7,29.59,East,90,3.8,6.7,25,0.00,,,0.00,WUHU216HW,2013-08-09 23:11:00,
2013-08-09 18:16:00,101.0,56.1,29.59,SSE,158,5.6,8.7,23,0.00,,,0.00,WUHU216HW,2013-08-09 23:16:00,
2013-08-09 18:21:00,101.2,57.3,29.59,SE,135,5.6,8.7,24,0.00,,,0.00,WUHU216HW,2013-08-09 23:21:00,
2013-08-09 18:26:00,101.2,56.2,29.59,SE,135,4.3,5.6,23,0.00,,,0.00,WUHU216HW,2013-08-09 23:26:00,
2013-08-09 18:31:00,101.5,56.4,29.59,ESE,113,3.4,6.9,23,0.00,,,0.00,WUHU216HW,2013-08-09 23:31:00,
2013-08-09 18:36:00,101.2,56.2,29.58,North,0,3.8,6.9,23,0.00,,,0.00,WUHU216HW,2013-08-09 23:36:00,
2013-08-09 18:41:00,100.8,57.1,29.58,SSE,158,4.7,6.9,24,0.00,,,0.00,WUHU216HW,2013-08-09 23:41:00,
2013-08-09 18:46:00,99.9,57.4,29.58,ESE,113,4.7,6.5,25,0.00,,,0.00,WUHU216HW,2013-08-09 23:46:00,
2013-08-09 18:51:00,99.4,58.1,29.58,SE,135,5.1,5.8,26,0.00,,,0.00,WUHU216HW,2013-08-09 23:51:00,
2013-08-09 18:56:00,99.7,57.2,29.58,SE,135,7.6,8.1,25,0.00,,,0.00,WUHU216HW,2013-08-09 23:56:00,
2013-08-09 19:01:00,99.7,59.5,29.59,East,90,2.0,9.6,27,0.00,,,0.00,WUHU216HW,2013-08-10 00:01:00,
2013-08-09 19:06:00,99.4,59.2,29.59,ESE,113,3.8,9.6,27,0.00,,,0.00,WUHU216HW,2013-08-10 00:06:00,
2013-08-09 19:11:00,99.7,59.5,29.59,SE,135,2.9,5.6,27,0.00,,,0.00,WUHU216HW,2013-08-10 00:11:00,
2013-08-09 19:16:00,99.7,59.5,29.59,East,90,3.6,5.6,27,0.00,,,0.00,WUHU216HW,2013-08-10 00:16:00,
2013-08-09 19:21:00,99.7,59.5,29.59,East,90,3.4,4.9,27,0.00,,,0.00,WUHU216HW,2013-08-10 00:21:00,
2013-08-09 19:26:00,99.5,59.3,29.59,East,90,2.9,4.9,27,0.00,,,0.00,WUHU216HW,2013-08-10 00:26:00,
2013-08-09 19:31:00,99.7,59.5,29.59,SE,135,2.0,4.0,27,0.00,,,0.00,WUHU216HW,2013-08-10 00:31:00,
2013-08-09 19:36:00,99.2,59.0,29.59,East,90,2.9,5.6,27,0.00,,,0.00,WUHU216HW,2013-08-10 00:36:00,
2013-08-09 19:41:00,98.3,59.4,29.60,ESE,113,2.5,5.6,28,0.00,,,0.00,WUHU216HW,2013-08-10 00:41:00,
2013-08-09 19:46:00,97.9,60.1,29.60,ESE,113,1.8,4.3,29,0.00,,,0.00,WUHU216HW,2013-08-10 00:46:00,
2013-08-09 19:51:00,98.1,60.3,29.60,ESE,113,2.0,4.3,29,0.00,,,0.00,WUHU216HW,2013-08-10 00:51:00,
2013-08-09 19:56:00,97.6,59.9,29.60,East,90,1.8,2.7,29,0.00,,,0.00,WUHU216HW,2013-08-10 00:56:00,
2013-08-09 20:01:00,97.2,60.7,29.60,ESE,113,0.9,2.0,30,0.00,,,0.00,WUHU216HW,2013-08-10 01:01:00,
2013-08-09 20:06:00,97.4,59.7,29.60,East,90,1.8,3.1,29,0.00,,,0.00,WUHU216HW,2013-08-10 01:06:00,
2013-08-09 20:11:00,97.2,59.5,29.60,ESE,113,1.3,3.1,29,0.00,,,0.00,WUHU216HW,2013-08-10 01:11:00,
2013-08-09 20:16:00,97.2,59.5,29.60,ESE,113,1.3,2.9,29,0.00,,,0.00,WUHU216HW,2013-08-10 01:16:00,
2013-08-09 20:21:00,96.7,59.0,29.60,SE,135,1.6,2.9,29,0.00,,,0.00,WUHU216HW,2013-08-10 01:21:00,
2013-08-09 20:26:00,95.9,59.6,29.61,East,90,2.5,2.5,30,0.00,,,0.00,WUHU216HW,2013-08-10 01:26:00,
2013-08-09 20:31:00,95.4,59.1,29.61,East,90,1.1,2.7,30,0.00,,,0.00,WUHU216HW,2013-08-10 01:31:00,
2013-08-09 20:36:00,94.9,58.7,29.62,East,90,1.8,2.7,30,0.00,,,0.00,WUHU216HW,2013-08-10 01:36:00,
2013-08-09 20:41:00,95.0,58.9,29.62,SE,135,1.3,3.1,30,0.00,,,0.00,WUHU216HW,2013-08-10 01:41:00,
2013-08-09 20:46:00,94.7,59.3,29.62,SE,135,1.3,3.1,31,0.00,,,0.00,WUHU216HW,2013-08-10 01:46:00,
2013-08-09 20:51:00,94.3,59.1,29.62,ESE,113,2.2,2.7,31,0.00,,,0.00,WUHU216HW,2013-08-10 01:51:00,
2013-08-09 20:56:00,94.3,59.9,29.63,SE,135,1.3,2.7,32,0.00,,,0.00,WUHU216HW,2013-08-10 01:56:00,
2013-08-09 21:01:00,93.8,59.3,29.63,ESE,113,1.8,2.7,32,0.00,,,0.00,WUHU216HW,2013-08-10 02:01:00,
2013-08-09 21:06:00,93.4,59.9,29.63,ESE,113,2.2,3.1,33,0.00,,,0.00,WUHU216HW,2013-08-10 02:06:00,
2013-08-09 21:11:00,93.2,59.7,29.63,East,90,1.6,3.1,33,0.00,,,0.00,WUHU216HW,2013-08-10 02:11:00,
2013-08-09 21:16:00,93.1,59.5,29.63,ESE,113,1.8,2.5,33,0.00,,,0.00,WUHU216HW,2013-08-10 02:16:00,
2013-08-09 21:21:00,92.9,60.2,29.64,SE,135,1.1,2.9,34,0.00,,,0.00,WUHU216HW,2013-08-10 02:21:00,
2013-08-09 21:26:00,92.5,60.7,29.64,ESE,113,1.1,2.9,35,0.00,,,0.00,WUHU216HW,2013-08-10 02:26:00,
2013-08-09 21:31:00,92.0,60.2,29.64,ESE,113,1.8,2.2,35,0.00,,,0.00,WUHU216HW,2013-08-10 02:31:00,
2013-08-09 21:36:00,90.9,60.0,29.64,SE,135,1.8,1.8,36,0.00,,,0.00,WUHU216HW,2013-08-10 02:36:00,
2013-08-09 21:41:00,89.5,60.4,29.65,SE,135,2.0,2.7,38,0.00,,,0.00,WUHU216HW,2013-08-10 02:41:00,
2013-08-09 21:46:00,89.3,61.0,29.65,ESE,113,2.5,2.7,39,0.00,,,0.00,WUHU216HW,2013-08-10 02:46:00,
2013-08-09 21:51:00,89.5,61.2,29.65,SE,135,1.6,2.5,39,0.00,,,0.00,WUHU216HW,2013-08-10 02:51:00,
2013-08-09 21:56:00,89.6,61.3,29.65,SE,135,2.2,2.7,39,0.00,,,0.00,WUHU216HW,2013-08-10 02:56:00,
2013-08-09 22:01:00,89.3,61.0,29.65,ESE,113,2.5,2.9,39,0.00,,,0.00,WUHU216HW,2013-08-10 03:01:00,
2013-08-09 22:06:00,88.6,61.2,29.66,SE,135,2.5,3.4,40,0.00,,,0.00,WUHU216HW,2013-08-10 03:06:00,
2013-08-09 22:11:00,88.2,60.9,29.66,ESE,113,2.5,3.4,40,0.00,,,0.00,WUHU216HW,2013-08-10 03:11:00,
2013-08-09 22:16:00,88.2,60.9,29.66,SE,135,3.1,3.6,40,0.00,,,0.00,WUHU216HW,2013-08-10 03:16:00,
2013-08-09 22:21:00,88.2,60.9,29.66,SE,135,2.7,3.6,40,0.00,,,0.00,WUHU216HW,2013-08-10 03:21:00,
2013-08-09 22:26:00,87.5,60.9,29.66,SE,135,3.4,3.6,41,0.00,,,0.00,WUHU216HW,2013-08-10 03:26:00,
2013-08-09 22:31:00,87.1,60.7,29.67,SE,135,2.5,3.4,41,0.00,,,0.00,WUHU216HW,2013-08-10 03:31:00,
2013-08-09 22:36:00,88.2,60.9,29.67,SE,135,1.8,3.4,40,0.00,,,0.00,WUHU216HW,2013-08-10 03:36:00,
2013-08-09 22:41:00,88.6,61.2,29.67,SE,135,2.2,3.4,40,0.00,,,0.00,WUHU216HW,2013-08-10 03:41:00,
2013-08-09 22:46:00,88.4,61.1,29.67,SE,135,2.5,3.4,40,0.00,,,0.00,WUHU216HW,2013-08-10 03:46:00,
2013-08-09 22:51:00,88.0,60.9,29.67,SE,135,3.1,3.1,40,0.00,,,0.00,WUHU216HW,2013-08-10 03:51:00,
2013-08-09 22:56:00,87.5,60.3,29.68,SE,135,2.2,3.1,40,0.00,,,0.00,WUHU216HW,2013-08-10 03:56:00,
2013-08-09 23:01:00,87.3,60.2,29.68,SE,135,2.5,3.1,40,0.00,,,0.00,WUHU216HW,2013-08-10 04:01:00,
2013-08-09 23:06:00,86.6,60.1,29.68,SE,135,5.1,5.4,41,0.00,,,0.00,WUHU216HW,2013-08-10 04:06:00,
2013-08-09 23:11:00,85.9,59.5,29.68,SE,135,4.7,5.4,41,0.00,,,0.00,WUHU216HW,2013-08-10 04:11:00,
2013-08-09 23:16:00,86.0,59.7,29.68,SE,135,4.5,6.3,41,0.00,,,0.00,WUHU216HW,2013-08-10 04:16:00,
2013-08-09 23:21:00,86.6,60.1,29.68,SE,135,5.6,6.3,41,0.00,,,0.00,WUHU216HW,2013-08-10 04:21:00,
2013-08-09 23:26:00,87.8,60.7,29.68,SE,135,4.9,5.8,40,0.00,,,0.00,WUHU216HW,2013-08-10 04:26:00,
2013-08-09 23:31:00,88.6,60.4,29.68,SE,135,4.7,6.0,39,0.00,,,0.00,WUHU216HW,2013-08-10 04:31:00,
2013-08-09 23:36:00,88.6,60.4,29.68,SE,135,4.3,6.0,39,0.00,,,0.00,WUHU216HW,2013-08-10 04:36:00,
2013-08-09 23:41:00,87.8,60.7,29.68,SSE,158,3.6,5.4,40,0.00,,,0.00,WUHU216HW,2013-08-10 04:41:00,
2013-08-09 23:46:00,87.1,60.7,29.68,SE,135,3.6,4.9,41,0.00,,,0.00,WUHU216HW,2013-08-10 04:46:00,
2013-08-09 23:51:00,86.6,61.4,29.68,South,180,6.9,6.9,43,0.00,,,0.00,WUHU216HW,2013-08-10 04:51:00,
2013-08-09 23:56:00,86.6,62.0,29.69,SSE,158,7.2,7.2,44,0.00,,,0.00,WUHU216HW,2013-08-10 04:56:00,